Weather History for Siemreap, Cambodia

Change the Weather History Date:

Tuesday, August 13, 2013

  Actual Average Record
Temperature  
Mean Temperature 80 °F -  
Max Temperature 84 °F - - ()
Min Temperature 75 °F - - ()
Cooling Degree Days 14    
Growing Degree Days 30 (Base 50)    
Moisture  
Dew Point 75 °F    
Average Humidity 89    
Maximum Humidity 94    
Minimum Humidity 79    
Precipitation  
Precipitation 0.00 in - - ()
Sea Level Pressure  
Sea Level Pressure 29.67 in    
Wind  
Wind Speed 4 mph ()    
Max Wind Speed 12 mph    
Max Gust Speed -    
Visibility 5.6 miles    
Events Rain    
T = Trace of Precipitation, MM = Missing Value Source: Averaged Metar Reports

Daily Weather History Graph

Daily Weather History Graph

Search for Another Location

Airport:

Trip Planner

Search our weather history database for the weather conditions in past years. The results will help you decide how hot, cold, wet, or windy it might be!

Date:

Astronomy

Aug. 13, 2013 Rise Set
Actual Time 5:51 AM ICT 6:27 PM ICT
Civil Twilight 5:29 AM ICT 6:49 PM ICT
Nautical Twilight 5:03 AM ICT 7:15 PM ICT
Astronomical Twilight 4:37 AM ICT 7:41 PM ICT
Moon 10:59 AM ICT (8/13) 10:55 PM ICT (8/13)
Length of Visible Light 13h 19m
Length of Day
12h 35m
Waxing Crescent, 36% of the Moon is Illuminated
Aug 13
Waxing Crescent
Aug 14
First Quarter
Aug 21
Full
Aug 28
Last Quarter
Sep 5
New

Hourly Weather History & Observations

Time (ICT) Temp. Heat Index Dew Point Humidity Pressure Visibility Wind Dir Wind Speed Gust Speed Precip Events Conditions
12:00 AM 77.0 °F - 73.4 °F 89% 29.71 in 5.6 mi SW 4.6 mph - N/A   Mostly Cloudy
12:30 AM 77.0 °F - 75.2 °F 94% 29.71 in 5.6 mi South 3.5 mph - N/A   Mostly Cloudy
1:00 AM 77.0 °F - 75.2 °F 94% 29.68 in 5.6 mi Calm Calm - N/A   Mostly Cloudy
7:00 AM 78.8 °F - 75.2 °F 89% 29.68 in 5.6 mi Calm Calm - N/A   Mostly Cloudy
7:30 AM 80.6 °F 86.2 °F 75.2 °F 84% 29.68 in 5.6 mi Calm Calm - N/A   Mostly Cloudy
8:00 AM 80.6 °F 87.1 °F 77.0 °F 89% 29.71 in 6.2 mi Calm Calm - N/A   Mostly Cloudy
8:30 AM 80.6 °F 87.1 °F 77.0 °F 89% 29.68 in 6.2 mi WSW 5.8 mph - N/A   Scattered Clouds
9:00 AM 82.4 °F 90.9 °F 77.0 °F 84% 29.68 in 6.2 mi SW 5.8 mph - N/A   Scattered Clouds
9:30 AM 82.4 °F 90.9 °F 77.0 °F 84% 29.71 in 6.2 mi WSW 4.6 mph - N/A   Scattered Clouds
10:00 AM 84.2 °F 94.1 °F 77.0 °F 79% 29.71 in 6.2 mi WSW 4.6 mph - N/A   Scattered Clouds
10:30 AM 82.4 °F 90.9 °F 77.0 °F 84% 29.71 in 6.2 mi West 11.5 mph - N/A Rain Light Rain
11:00 AM 78.8 °F - 77.0 °F 94% 29.68 in 5.0 mi West 5.8 mph - N/A Rain Light Rain
11:30 AM 78.8 °F - 77.0 °F 94% 29.68 in 5.6 mi Variable 1.2 mph - N/A Rain Light Rain
12:00 PM 77.0 °F - 75.2 °F 94% 29.68 in 3.7 mi WNW 4.6 mph - N/A Rain Rain
12:30 PM 77.0 °F - 75.2 °F 94% 29.65 in 4.3 mi Variable 1.2 mph - N/A Rain Light Rain
1:00 PM 78.8 °F - 77.0 °F 94% 29.65 in 5.0 mi ENE 6.9 mph - N/A Rain Light Rain
1:30 PM 78.8 °F - 77.0 °F 94% 29.62 in 6.2 mi Variable 2.3 mph - N/A Rain Light Rain
2:00 PM 77.0 °F - 75.2 °F 94% 29.59 in 6.2 mi SSW 11.5 mph - N/A Rain Light Rain
2:30 PM 77.0 °F - 75.2 °F 94% 29.59 in 6.2 mi West 9.2 mph - N/A Rain Light Rain
3:00 PM 78.8 °F - 73.4 °F 83% 29.59 in 6.2 mi West 4.6 mph - N/A Rain Light Rain
3:30 PM 80.6 °F 86.2 °F 75.2 °F 84% 29.59 in 6.2 mi WNW 6.9 mph - N/A   Mostly Cloudy
4:00 PM 80.6 °F 86.2 °F 75.2 °F 84% 29.59 in 6.2 mi WSW 6.9 mph - N/A   Mostly Cloudy
4:30 PM 78.8 °F - 73.4 °F 83% 29.59 in 6.2 mi WSW 3.5 mph - N/A   Mostly Cloudy
5:00 PM 80.6 °F 85.4 °F 73.4 °F 79% 29.59 in 6.2 mi South 4.6 mph - N/A   Mostly Cloudy
5:30 PM 78.8 °F - 75.2 °F 89% 29.59 in 6.2 mi South 6.9 mph - N/A   Mostly Cloudy
6:00 PM 78.8 °F - 73.4 °F 83% 29.62 in 6.2 mi South 4.6 mph - N/A   Mostly Cloudy
6:30 PM 78.8 °F - 75.2 °F 89% 29.62 in 5.6 mi South 4.6 mph - N/A   Mostly Cloudy
7:00 PM 78.8 °F - 75.2 °F 89% 29.65 in 5.6 mi Calm Calm - N/A   Mostly Cloudy
7:30 PM 78.8 °F - 75.2 °F 89% 29.68 in 5.6 mi NNW 8.1 mph - N/A   Mostly Cloudy
8:00 PM 75.2 °F - 73.4 °F 94% 29.68 in 4.3 mi Calm Calm - N/A Rain Rain
8:30 PM 75.2 °F - 73.4 °F 94% 29.71 in 5.0 mi West 6.9 mph - N/A Rain Light Rain
9:00 PM 75.2 °F - 73.4 °F 94% 29.71 in 5.0 mi West 6.9 mph - N/A Rain Light Rain
9:30 PM 75.2 °F - 73.4 °F 94% 29.74 in 5.0 mi West 3.5 mph - N/A Rain Light Rain
10:00 PM 75.2 °F - 73.4 °F 94% 29.74 in 5.0 mi West 3.5 mph - N/A Rain Light Rain
11:00 PM 77.0 °F - 75.2 °F 94% 29.74 in 5.0 mi West 6.9 mph - N/A Rain Light Rain
11:30 PM 77.0 °F - 75.2 °F 94% 29.74 in 5.0 mi West 9.2 mph - N/A Rain Light Rain